Time,TemperatureF,DewpointF,PressureIn,WindDirection,WindDirectionDegrees,WindSpeedMPH,WindSpeedGustMPH,Humidity,HourlyPrecipIn,Conditions,Clouds,dailyrainin,SoftwareType,DateUTC
2013-02-11 00:05:00,30.6,20.8,30.31,SE,135,0.7,1.6,56,0.00,,,0.00,fowsr,2013-02-11 05:05:00,
2013-02-11 00:10:00,30.6,20.8,30.32,South,180,0.7,1.6,56,0.00,,,0.00,fowsr,2013-02-11 05:10:00,
2013-02-11 00:15:00,30.6,20.8,30.32,East,90,0.0,0.0,56,0.00,,,0.00,fowsr,2013-02-11 05:15:00,
2013-02-11 00:20:00,30.4,20.9,30.32,SE,135,0.0,0.7,57,0.00,,,0.00,fowsr,2013-02-11 05:20:00,
2013-02-11 00:25:00,30.4,20.9,30.32,SE,135,0.0,0.0,57,0.00,,,0.00,fowsr,2013-02-11 05:25:00,
2013-02-11 00:35:00,30.2,21.0,30.31,South,180,0.0,1.6,58,0.00,,,0.00,fowsr,2013-02-11 05:35:00,
2013-02-11 00:45:00,30.2,21.3,30.31,SE,135,0.0,0.0,59,0.00,,,0.00,fowsr,2013-02-11 05:45:00,
2013-02-11 00:55:00,30.0,21.4,30.30,East,90,1.6,3.1,60,0.00,,,0.00,fowsr,2013-02-11 05:55:00,
2013-02-11 01:00:00,30.0,21.7,30.29,East,90,1.6,2.2,61,0.00,,,0.00,fowsr,2013-02-11 06:00:00,
2013-02-11 01:05:00,30.0,21.7,30.29,East,90,1.6,2.2,61,0.00,,,0.00,fowsr,2013-02-11 06:05:00,
2013-02-11 01:10:00,30.2,21.6,30.28,East,90,1.6,3.1,60,0.00,,,0.00,fowsr,2013-02-11 06:10:00,
2013-02-11 01:15:00,30.2,21.6,30.28,East,90,1.6,2.2,60,0.00,,,0.00,fowsr,2013-02-11 06:15:00,
2013-02-11 01:20:00,30.2,21.8,30.28,East,90,1.6,2.2,61,0.00,,,0.00,fowsr,2013-02-11 06:20:00,
2013-02-11 01:25:00,30.2,22.1,30.28,East,90,2.2,3.1,62,0.00,,,0.00,fowsr,2013-02-11 06:25:00,
2013-02-11 01:30:00,30.2,22.6,30.28,East,90,2.2,3.8,64,0.00,,,0.00,fowsr,2013-02-11 06:30:00,
2013-02-11 01:40:00,30.4,22.8,30.27,East,90,1.6,2.2,64,0.00,,,0.00,fowsr,2013-02-11 06:40:00,
2013-02-11 01:45:00,30.4,22.8,30.27,NE,45,0.7,2.2,64,0.00,,,0.00,fowsr,2013-02-11 06:45:00,
2013-02-11 01:50:00,30.4,22.8,30.27,SE,135,0.0,0.7,64,0.00,,,0.00,fowsr,2013-02-11 06:50:00,
2013-02-11 01:55:00,30.4,22.8,30.27,NE,45,0.7,1.6,64,0.00,,,0.00,fowsr,2013-02-11 06:55:00,
2013-02-11 02:00:00,30.4,22.8,30.27,SW,225,0.0,0.0,64,0.00,,,0.00,fowsr,2013-02-11 07:00:00,
2013-02-11 02:10:00,30.4,22.8,30.28,SE,135,0.0,0.0,64,0.00,,,0.00,fowsr,2013-02-11 07:10:00,
2013-02-11 02:15:00,30.4,22.8,30.27,East,90,0.0,0.7,64,0.00,,,0.00,fowsr,2013-02-11 07:15:00,
2013-02-11 02:25:00,30.6,23.2,30.27,SE,135,0.7,1.6,65,0.00,,,0.00,fowsr,2013-02-11 07:25:00,
2013-02-11 02:30:00,30.6,23.2,30.26,East,90,1.6,2.2,65,0.00,,,0.00,fowsr,2013-02-11 07:30:00,
2013-02-11 02:35:00,30.7,23.4,30.26,East,90,0.7,2.2,65,0.00,,,0.00,fowsr,2013-02-11 07:35:00,
2013-02-11 02:40:00,30.7,23.4,30.25,SE,135,0.0,0.0,65,0.00,,,0.00,fowsr,2013-02-11 07:40:00,
2013-02-11 02:45:00,30.9,23.6,30.24,East,90,0.0,0.7,65,0.00,,,0.00,fowsr,2013-02-11 07:45:00,
2013-02-11 02:50:00,30.9,23.6,30.24,SE,135,0.0,0.7,65,0.00,,,0.00,fowsr,2013-02-11 07:50:00,
2013-02-11 02:55:00,30.9,23.6,30.23,East,90,0.0,1.6,65,0.00,,,0.00,fowsr,2013-02-11 07:55:00,
2013-02-11 03:00:00,30.9,23.6,30.23,East,90,0.7,1.6,65,0.00,,,0.00,fowsr,2013-02-11 08:00:00,
2013-02-11 03:05:00,30.9,23.6,30.23,East,90,0.7,1.6,65,0.00,,,0.00,fowsr,2013-02-11 08:05:00,
2013-02-11 03:10:00,30.9,23.8,30.22,ENE,67,1.6,2.2,66,0.00,,,0.00,fowsr,2013-02-11 08:10:00,
2013-02-11 03:15:00,31.1,24.2,30.22,East,90,1.6,2.2,67,0.00,,,0.00,fowsr,2013-02-11 08:15:00,
2013-02-11 03:20:00,31.1,24.2,30.22,East,90,0.0,1.6,67,0.00,,,0.00,fowsr,2013-02-11 08:20:00,
2013-02-11 03:25:00,31.3,24.4,30.22,East,90,0.0,0.7,67,0.00,,,0.00,fowsr,2013-02-11 08:25:00,
2013-02-11 03:30:00,31.3,24.4,30.21,East,90,1.6,2.2,67,0.00,,,0.00,fowsr,2013-02-11 08:30:00,
2013-02-11 03:35:00,31.3,24.4,30.21,South,180,0.0,0.7,67,0.00,,,0.00,fowsr,2013-02-11 08:35:00,
2013-02-11 03:40:00,31.5,24.6,30.21,East,90,0.7,2.2,67,0.00,,,0.00,fowsr,2013-02-11 08:40:00,
2013-02-11 03:45:00,31.5,24.8,30.21,East,90,0.0,1.6,68,0.00,,,0.00,fowsr,2013-02-11 08:45:00,
2013-02-11 03:50:00,31.5,24.8,30.20,East,90,0.7,2.2,68,0.00,,,0.00,fowsr,2013-02-11 08:50:00,
2013-02-11 03:55:00,31.6,25.2,30.20,East,90,0.7,1.6,69,0.00,,,0.00,fowsr,2013-02-11 08:55:00,
2013-02-11 04:00:00,31.6,25.2,30.19,ESE,112,1.6,2.2,69,0.00,,,0.00,fowsr,2013-02-11 09:00:00,
2013-02-11 04:05:00,31.6,25.2,30.19,East,90,0.7,1.6,69,0.00,,,0.00,fowsr,2013-02-11 09:05:00,
2013-02-11 04:10:00,31.6,25.2,30.19,East,90,0.7,2.2,69,0.00,,,0.00,fowsr,2013-02-11 09:10:00,
2013-02-11 04:15:00,31.6,25.5,30.19,East,90,0.0,0.7,70,0.00,,,0.00,fowsr,2013-02-11 09:15:00,
2013-02-11 04:20:00,31.6,25.7,30.19,SE,135,0.0,0.7,71,0.00,,,0.00,fowsr,2013-02-11 09:20:00,
2013-02-11 04:25:00,31.6,25.7,30.18,South,180,0.7,1.6,71,0.00,,,0.00,fowsr,2013-02-11 09:25:00,
2013-02-11 04:30:00,31.6,26.0,30.18,East,90,0.0,1.6,72,0.00,,,0.00,fowsr,2013-02-11 09:30:00,
2013-02-11 04:35:00,31.5,26.2,30.18,SE,135,0.0,0.7,74,0.00,,,0.00,fowsr,2013-02-11 09:35:00,
2013-02-11 04:45:00,31.5,26.5,30.17,East,90,0.7,1.6,75,0.00,,,0.00,fowsr,2013-02-11 09:45:00,
2013-02-11 04:50:00,31.5,26.7,30.17,East,90,2.2,3.1,76,0.00,,,0.00,fowsr,2013-02-11 09:50:00,
2013-02-11 04:55:00,31.5,26.7,30.17,South,180,0.0,0.0,76,0.01,,,0.01,fowsr,2013-02-11 09:55:00,
2013-02-11 05:00:00,31.5,26.9,30.16,SE,135,1.6,2.2,77,0.01,,,0.01,fowsr,2013-02-11 10:00:00,
2013-02-11 05:10:00,31.6,27.5,30.16,East,90,0.7,1.6,79,0.01,,,0.01,fowsr,2013-02-11 10:10:00,
2013-02-11 05:15:00,31.6,27.5,30.15,East,90,0.0,0.7,79,0.01,,,0.01,fowsr,2013-02-11 10:15:00,
2013-02-11 05:20:00,31.6,27.5,30.15,East,90,0.7,1.6,79,0.01,,,0.01,fowsr,2013-02-11 10:20:00,
2013-02-11 05:25:00,31.6,27.8,30.15,East,90,1.6,2.2,80,0.01,,,0.01,fowsr,2013-02-11 10:25:00,
2013-02-11 05:30:00,31.6,28.0,30.15,East,90,1.6,3.1,81,0.01,,,0.01,fowsr,2013-02-11 10:30:00,
2013-02-11 05:35:00,31.6,28.2,30.14,East,90,1.6,2.2,82,0.02,,,0.02,fowsr,2013-02-11 10:35:00,
2013-02-11 05:40:00,31.8,28.6,30.14,SE,135,1.6,2.2,83,0.02,,,0.02,fowsr,2013-02-11 10:40:00,
2013-02-11 05:45:00,31.8,28.8,30.13,East,90,0.7,2.2,84,0.02,,,0.02,fowsr,2013-02-11 10:45:00,
2013-02-11 05:50:00,31.8,28.8,30.14,East,90,0.0,0.7,84,0.04,,,0.04,fowsr,2013-02-11 10:50:00,
2013-02-11 05:55:00,32.0,28.7,30.13,East,90,0.0,0.7,83,0.04,,,0.04,fowsr,2013-02-11 10:55:00,
2013-02-11 06:00:00,32.0,28.7,30.12,East,90,0.0,0.7,83,0.02,,,0.04,fowsr,2013-02-11 11:00:00,
2013-02-11 06:05:00,32.0,28.7,30.12,East,90,0.0,0.7,83,0.04,,,0.05,fowsr,2013-02-11 11:05:00,
2013-02-11 06:10:00,32.0,28.7,30.11,East,90,0.7,0.7,83,0.05,,,0.06,fowsr,2013-02-11 11:10:00,
2013-02-11 06:15:00,32.2,28.9,30.10,East,90,0.0,0.7,83,0.06,,,0.07,fowsr,2013-02-11 11:15:00,
2013-02-11 06:20:00,32.2,28.9,30.10,East,90,0.7,0.7,83,0.07,,,0.08,fowsr,2013-02-11 11:20:00,
2013-02-11 06:25:00,32.2,29.1,30.10,NE,45,0.0,1.6,84,0.09,,,0.11,fowsr,2013-02-11 11:25:00,
2013-02-11 06:30:00,32.4,29.3,30.09,NE,45,0.7,1.6,84,0.09,,,0.11,fowsr,2013-02-11 11:30:00,
2013-02-11 06:35:00,32.4,29.3,30.08,East,90,0.7,1.6,84,0.11,,,0.12,fowsr,2013-02-11 11:35:00,
2013-02-11 06:40:00,32.4,29.3,30.08,East,90,0.0,0.7,84,0.11,,,0.13,fowsr,2013-02-11 11:40:00,
2013-02-11 06:45:00,32.5,29.7,30.08,NE,45,0.0,0.0,85,0.11,,,0.13,fowsr,2013-02-11 11:45:00,
2013-02-11 06:50:00,32.5,29.7,30.07,NE,45,0.0,0.7,85,0.12,,,0.14,fowsr,2013-02-11 11:50:00,
2013-02-11 06:55:00,32.7,29.9,30.07,NE,45,0.0,0.0,85,0.13,,,0.17,fowsr,2013-02-11 11:55:00,
2013-02-11 07:00:00,32.7,29.9,30.07,East,90,0.0,0.0,85,0.14,,,0.18,fowsr,2013-02-11 12:00:00,
2013-02-11 07:05:00,32.7,29.9,30.06,East,90,0.0,0.0,85,0.14,,,0.18,fowsr,2013-02-11 12:05:00,
2013-02-11 07:10:00,32.7,29.9,30.06,East,90,0.0,0.0,85,0.13,,,0.18,fowsr,2013-02-11 12:10:00,
2013-02-11 07:15:00,32.9,30.0,30.05,East,90,0.0,1.6,85,0.13,,,0.19,fowsr,2013-02-11 12:15:00,
2013-02-11 07:20:00,32.9,30.0,30.05,East,90,0.0,0.0,85,0.12,,,0.20,fowsr,2013-02-11 12:20:00,
2013-02-11 07:25:00,32.9,30.0,30.05,East,90,0.0,0.7,85,0.11,,,0.20,fowsr,2013-02-11 12:25:00,
2013-02-11 07:30:00,33.1,30.4,30.05,NE,45,0.7,1.6,86,0.11,,,0.21,fowsr,2013-02-11 12:30:00,
2013-02-11 07:35:00,33.3,30.6,30.05,North,0,0.7,1.6,86,0.11,,,0.21,fowsr,2013-02-11 12:35:00,
2013-02-11 07:40:00,33.3,30.6,30.05,North,0,0.0,0.0,86,0.11,,,0.22,fowsr,2013-02-11 12:40:00,
2013-02-11 07:45:00,33.4,30.8,30.04,North,0,0.0,0.0,86,0.09,,,0.22,fowsr,2013-02-11 12:45:00,
2013-02-11 07:50:00,33.6,30.9,30.05,NW,315,1.6,2.2,86,0.09,,,0.22,fowsr,2013-02-11 12:50:00,
2013-02-11 07:55:00,33.6,30.9,30.05,North,0,1.6,3.1,86,0.09,,,0.25,fowsr,2013-02-11 12:55:00,
2013-02-11 08:00:00,33.4,30.6,30.05,NW,315,2.2,3.8,85,0.08,,,0.25,fowsr,2013-02-11 13:00:00,
2013-02-11 08:05:00,33.1,30.2,30.04,NW,315,2.2,3.1,85,0.07,,,0.25,fowsr,2013-02-11 13:05:00,
2013-02-11 08:10:00,33.1,30.2,30.05,NW,315,1.6,3.1,85,0.08,,,0.26,fowsr,2013-02-11 13:10:00,
2013-02-11 08:15:00,32.9,30.0,30.04,NW,315,1.6,2.2,85,0.08,,,0.26,fowsr,2013-02-11 13:15:00,
2013-02-11 08:20:00,32.9,30.2,30.04,North,0,3.1,3.8,86,0.08,,,0.27,fowsr,2013-02-11 13:20:00,
2013-02-11 08:25:00,32.9,30.2,30.04,North,0,0.7,2.2,86,0.08,,,0.28,fowsr,2013-02-11 13:25:00,
2013-02-11 08:30:00,32.9,30.2,30.04,North,0,0.7,2.2,86,0.08,,,0.28,fowsr,2013-02-11 13:30:00,
2013-02-11 08:35:00,32.9,30.2,30.04,NW,315,1.6,3.1,86,0.08,,,0.29,fowsr,2013-02-11 13:35:00,
2013-02-11 08:40:00,33.1,30.4,30.04,NW,315,1.6,2.2,86,0.09,,,0.31,fowsr,2013-02-11 13:40:00,
2013-02-11 08:45:00,33.1,30.4,30.03,NW,315,1.6,2.2,86,0.08,,,0.31,fowsr,2013-02-11 13:45:00,
2013-02-11 08:50:00,33.1,30.4,30.03,NW,315,0.7,1.6,86,0.09,,,0.32,fowsr,2013-02-11 13:50:00,
2013-02-11 08:55:00,33.1,30.4,30.03,West,270,0.0,1.6,86,0.08,,,0.32,fowsr,2013-02-11 13:55:00,
2013-02-11 09:00:00,33.1,30.4,30.03,NE,45,0.7,2.2,86,0.07,,,0.32,fowsr,2013-02-11 14:00:00,
2013-02-11 09:05:00,33.1,30.4,30.03,NE,45,0.7,2.2,86,0.07,,,0.32,fowsr,2013-02-11 14:05:00,
2013-02-11 09:10:00,33.3,30.6,30.02,NW,315,0.7,1.6,86,0.08,,,0.33,fowsr,2013-02-11 14:10:00,
2013-02-11 09:15:00,33.3,30.8,30.02,NE,45,0.7,3.1,87,0.07,,,0.33,fowsr,2013-02-11 14:15:00,
2013-02-11 09:20:00,33.3,30.8,30.02,NE,45,0.7,2.2,87,0.06,,,0.33,fowsr,2013-02-11 14:20:00,
2013-02-11 09:25:00,33.3,30.8,30.02,NW,315,0.0,0.7,87,0.06,,,0.33,fowsr,2013-02-11 14:25:00,
2013-02-11 09:30:00,33.3,30.8,30.02,NE,45,0.0,0.7,87,0.05,,,0.33,fowsr,2013-02-11 14:30:00,
2013-02-11 09:40:00,33.4,31.0,30.00,SE,135,0.0,0.0,87,0.04,,,0.33,fowsr,2013-02-11 14:40:00,
2013-02-11 09:45:00,33.6,31.1,29.99,North,0,0.0,0.0,87,0.02,,,0.33,fowsr,2013-02-11 14:45:00,
2013-02-11 09:50:00,33.8,31.1,29.99,North,0,0.0,0.0,86,0.02,,,0.33,fowsr,2013-02-11 14:50:00,
2013-02-11 09:55:00,34.0,31.3,29.99,North,0,0.0,0.0,86,0.01,,,0.33,fowsr,2013-02-11 14:55:00,
2013-02-11 10:00:00,34.2,31.5,29.99,North,0,0.0,0.0,86,0.01,,,0.33,fowsr,2013-02-11 15:00:00,
2013-02-11 10:05:00,34.3,31.9,29.99,SW,225,0.0,0.0,87,0.01,,,0.33,fowsr,2013-02-11 15:05:00,
2013-02-11 10:10:00,34.5,32.0,29.98,SW,225,0.0,0.0,87,0.01,,,0.33,fowsr,2013-02-11 15:10:00,
2013-02-11 10:15:00,34.7,32.2,29.99,SW,225,0.0,0.0,87,0.00,,,0.33,fowsr,2013-02-11 15:15:00,
2013-02-11 10:20:00,34.7,32.2,29.99,SW,225,0.0,0.0,87,0.00,,,0.33,fowsr,2013-02-11 15:20:00,
2013-02-11 10:25:00,34.9,32.4,29.99,North,0,0.0,0.0,87,0.00,,,0.33,fowsr,2013-02-11 15:25:00,
2013-02-11 10:30:00,34.9,32.4,29.99,NW,315,0.0,0.0,87,0.00,,,0.33,fowsr,2013-02-11 15:30:00,
2013-02-11 10:35:00,34.9,32.4,29.98,NW,315,0.0,0.0,87,0.00,,,0.33,fowsr,2013-02-11 15:35:00,
2013-02-11 10:40:00,35.1,32.6,29.98,NW,315,0.0,0.0,87,0.00,,,0.33,fowsr,2013-02-11 15:40:00,
2013-02-11 10:45:00,34.9,32.4,29.98,NW,315,0.0,0.0,87,0.00,,,0.33,fowsr,2013-02-11 15:45:00,
2013-02-11 10:50:00,35.1,32.6,29.98,North,0,0.0,0.0,87,0.00,,,0.33,fowsr,2013-02-11 15:50:00,
2013-02-11 10:55:00,35.1,32.6,29.98,SW,225,0.0,0.0,87,0.00,,,0.33,fowsr,2013-02-11 15:55:00,
2013-02-11 11:00:00,35.1,32.6,29.97,NE,45,0.7,1.6,87,0.00,,,0.33,fowsr,2013-02-11 16:00:00,
2013-02-11 11:05:00,35.1,32.6,29.96,North,0,0.0,0.0,87,0.00,,,0.33,fowsr,2013-02-11 16:05:00,
2013-02-11 11:10:00,35.2,32.7,29.96,North,0,0.0,0.0,87,0.00,,,0.33,fowsr,2013-02-11 16:10:00,
2013-02-11 11:15:00,35.2,32.7,29.95,North,0,0.0,0.0,87,0.00,,,0.33,fowsr,2013-02-11 16:15:00,
2013-02-11 11:20:00,35.2,32.7,29.95,North,0,0.0,0.0,87,0.00,,,0.33,fowsr,2013-02-11 16:20:00,
2013-02-11 11:25:00,35.6,32.9,29.95,West,270,0.0,0.0,86,0.00,,,0.33,fowsr,2013-02-11 16:25:00,
2013-02-11 11:30:00,35.8,33.1,29.95,SW,225,0.0,0.0,86,0.00,,,0.33,fowsr,2013-02-11 16:30:00,
2013-02-11 11:35:00,36.1,33.6,29.95,West,270,0.0,0.0,87,0.00,,,0.33,fowsr,2013-02-11 16:35:00,
2013-02-11 11:40:00,36.3,33.8,29.94,SW,225,0.0,0.0,87,0.00,,,0.33,fowsr,2013-02-11 16:40:00,
2013-02-11 11:45:00,36.7,34.1,29.93,SW,225,0.0,0.0,87,0.00,,,0.33,fowsr,2013-02-11 16:45:00,
2013-02-11 11:50:00,37.0,34.5,29.92,SW,225,0.0,0.0,87,0.00,,,0.33,fowsr,2013-02-11 16:50:00,
2013-02-11 11:55:00,37.2,34.7,29.92,SW,225,0.0,0.0,87,0.00,,,0.33,fowsr,2013-02-11 16:55:00,
2013-02-11 12:00:00,37.2,34.7,29.91,East,90,0.0,0.0,87,0.00,,,0.33,fowsr,2013-02-11 17:00:00,
2013-02-11 12:05:00,37.2,34.7,29.91,SW,225,0.0,0.0,87,0.00,,,0.33,fowsr,2013-02-11 17:05:00,
2013-02-11 12:10:00,37.4,35.7,29.91,SW,225,0.0,0.0,91,0.00,,,0.33,fowsr,2013-02-11 17:10:00,
2013-02-11 12:15:00,37.8,36.2,29.91,East,90,0.0,0.0,92,0.00,,,0.33,fowsr,2013-02-11 17:15:00,
2013-02-11 12:20:00,37.9,36.4,29.91,West,270,0.0,0.0,92,0.00,,,0.33,fowsr,2013-02-11 17:20:00,
2013-02-11 12:25:00,38.1,36.6,29.90,South,180,0.0,0.0,92,0.00,,,0.33,fowsr,2013-02-11 17:25:00,
2013-02-11 12:30:00,38.1,36.6,29.90,SE,135,0.0,0.0,92,0.00,,,0.33,fowsr,2013-02-11 17:30:00,
2013-02-11 12:35:00,38.5,36.9,29.89,SE,135,0.0,0.0,92,0.00,,,0.33,fowsr,2013-02-11 17:35:00,
2013-02-11 12:40:00,38.7,37.1,29.88,South,180,0.0,0.0,92,0.00,,,0.33,fowsr,2013-02-11 17:40:00,
2013-02-11 12:45:00,39.2,37.4,29.87,South,180,0.0,0.0,91,0.00,,,0.33,fowsr,2013-02-11 17:45:00,
2013-02-11 12:50:00,39.6,38.0,29.86,SE,135,0.0,0.0,92,0.00,,,0.33,fowsr,2013-02-11 17:50:00,
2013-02-11 12:55:00,39.9,38.4,29.86,SW,225,0.0,0.0,92,0.00,,,0.33,fowsr,2013-02-11 17:55:00,
2013-02-11 13:00:00,39.9,38.4,29.86,SW,225,0.0,0.0,92,0.00,,,0.33,fowsr,2013-02-11 18:00:00,
2013-02-11 13:05:00,40.1,38.5,29.85,SE,135,0.0,0.0,92,0.00,,,0.33,fowsr,2013-02-11 18:05:00,
2013-02-11 13:10:00,40.3,38.7,29.86,SW,225,0.7,2.2,92,0.00,,,0.33,fowsr,2013-02-11 18:10:00,
2013-02-11 13:15:00,40.3,38.7,29.85,West,270,0.0,0.0,92,0.00,,,0.33,fowsr,2013-02-11 18:15:00,
2013-02-11 13:20:00,40.3,38.7,29.84,South,180,0.0,0.0,92,0.00,,,0.33,fowsr,2013-02-11 18:20:00,
2013-02-11 13:25:00,40.3,38.7,29.84,South,180,0.0,0.0,92,0.00,,,0.33,fowsr,2013-02-11 18:25:00,
2013-02-11 13:30:00,40.5,38.9,29.83,SE,135,0.0,0.0,92,0.00,,,0.33,fowsr,2013-02-11 18:30:00,
2013-02-11 13:35:00,40.6,39.1,29.83,SE,135,0.0,0.0,92,0.00,,,0.33,fowsr,2013-02-11 18:35:00,
2013-02-11 13:40:00,40.6,39.1,29.83,SE,135,0.0,0.0,92,0.00,,,0.33,fowsr,2013-02-11 18:40:00,
2013-02-11 13:45:00,40.8,39.3,29.82,SE,135,0.0,0.0,92,0.00,,,0.33,fowsr,2013-02-11 18:45:00,
2013-02-11 13:50:00,41.0,39.2,29.83,SSW,202,0.0,0.7,91,0.00,,,0.33,fowsr,2013-02-11 18:50:00,
2013-02-11 13:55:00,41.0,39.2,29.83,SW,225,0.0,0.0,91,0.00,,,0.33,fowsr,2013-02-11 18:55:00,
2013-02-11 14:00:00,41.0,39.4,29.83,SW,225,0.0,0.0,92,0.00,,,0.33,fowsr,2013-02-11 19:00:00,
2013-02-11 14:05:00,41.2,39.6,29.82,East,90,0.0,0.0,92,0.00,,,0.33,fowsr,2013-02-11 19:05:00,
2013-02-11 14:10:00,41.4,39.8,29.82,South,180,0.0,0.0,92,0.00,,,0.33,fowsr,2013-02-11 19:10:00,
2013-02-11 14:15:00,41.4,39.8,29.82,SE,135,0.0,0.0,92,0.00,,,0.33,fowsr,2013-02-11 19:15:00,
2013-02-11 14:20:00,41.7,40.1,29.81,South,180,0.0,0.0,92,0.00,,,0.33,fowsr,2013-02-11 19:20:00,
2013-02-11 14:25:00,41.9,40.3,29.81,East,90,0.0,0.0,92,0.00,,,0.33,fowsr,2013-02-11 19:25:00,
2013-02-11 14:30:00,42.1,40.5,29.81,West,270,0.0,0.0,92,0.00,,,0.33,fowsr,2013-02-11 19:30:00,
2013-02-11 14:35:00,42.6,41.2,29.81,West,270,0.7,3.8,93,0.00,,,0.33,fowsr,2013-02-11 19:35:00,
2013-02-11 14:40:00,43.0,41.4,29.80,SE,135,0.7,2.2,92,0.00,,,0.33,fowsr,2013-02-11 19:40:00,
2013-02-11 14:45:00,43.2,41.6,29.80,SW,225,0.0,0.7,92,0.00,,,0.33,fowsr,2013-02-11 19:45:00,
2013-02-11 14:50:00,43.3,41.7,29.80,SW,225,0.0,0.0,92,0.00,,,0.33,fowsr,2013-02-11 19:50:00,
2013-02-11 14:55:00,43.7,42.1,29.80,SW,225,0.7,2.2,92,0.00,,,0.33,fowsr,2013-02-11 19:55:00,
2013-02-11 15:00:00,43.9,42.3,29.79,WSW,247,1.6,2.2,92,0.00,,,0.33,fowsr,2013-02-11 20:00:00,
2013-02-11 15:05:00,44.1,42.5,29.79,NW,315,1.6,2.2,92,0.00,,,0.33,fowsr,2013-02-11 20:05:00,
2013-02-11 15:10:00,44.2,42.6,29.79,WSW,247,1.6,3.1,92,0.00,,,0.33,fowsr,2013-02-11 20:10:00,
2013-02-11 15:15:00,44.4,43.0,29.78,South,180,0.7,1.6,93,0.00,,,0.33,fowsr,2013-02-11 20:15:00,
2013-02-11 15:20:00,44.4,43.0,29.78,SW,225,1.6,3.1,93,0.00,,,0.33,fowsr,2013-02-11 20:20:00,
2013-02-11 15:25:00,44.4,43.0,29.78,NW,315,0.7,1.6,93,0.00,,,0.33,fowsr,2013-02-11 20:25:00,
2013-02-11 15:30:00,44.6,43.0,29.77,South,180,1.6,2.2,92,0.00,,,0.33,fowsr,2013-02-11 20:30:00,
2013-02-11 15:35:00,44.8,43.2,29.76,South,180,1.6,2.2,92,0.00,,,0.33,fowsr,2013-02-11 20:35:00,
2013-02-11 15:40:00,44.8,43.2,29.76,SW,225,2.2,3.1,92,0.00,,,0.33,fowsr,2013-02-11 20:40:00,
2013-02-11 15:45:00,45.0,43.3,29.76,WSW,247,0.7,1.6,92,0.00,,,0.33,fowsr,2013-02-11 20:45:00,
2013-02-11 15:50:00,45.0,43.3,29.76,West,270,1.6,3.1,92,0.00,,,0.33,fowsr,2013-02-11 20:50:00,
2013-02-11 15:55:00,45.1,43.5,29.76,North,0,3.1,6.0,92,0.00,,,0.33,fowsr,2013-02-11 20:55:00,
2013-02-11 16:00:00,45.3,43.7,29.75,West,270,2.2,5.4,92,0.00,,,0.33,fowsr,2013-02-11 21:00:00,
2013-02-11 16:05:00,45.3,43.7,29.75,ESE,112,4.5,6.0,92,0.00,,,0.33,fowsr,2013-02-11 21:05:00,
2013-02-11 16:10:00,45.1,43.5,29.75,SW,225,3.1,6.0,92,0.00,,,0.33,fowsr,2013-02-11 21:10:00,
2013-02-11 16:15:00,45.3,43.7,29.75,West,270,1.6,3.1,92,0.00,,,0.33,fowsr,2013-02-11 21:15:00,
2013-02-11 16:20:00,45.5,44.1,29.74,SW,225,0.7,2.2,93,0.00,,,0.33,fowsr,2013-02-11 21:20:00,
2013-02-11 16:25:00,45.3,43.9,29.75,SW,225,1.6,2.2,93,0.00,,,0.33,fowsr,2013-02-11 21:25:00,
2013-02-11 16:30:00,45.5,44.1,29.75,South,180,1.6,3.8,93,0.00,,,0.33,fowsr,2013-02-11 21:30:00,
2013-02-11 16:35:00,45.7,44.3,29.74,SW,225,1.6,4.5,93,0.00,,,0.33,fowsr,2013-02-11 21:35:00,
2013-02-11 16:40:00,45.7,44.3,29.74,West,270,3.8,5.4,93,0.00,,,0.33,fowsr,2013-02-11 21:40:00,
2013-02-11 16:45:00,45.9,44.4,29.74,SW,225,1.6,3.1,93,0.00,,,0.33,fowsr,2013-02-11 21:45:00,
2013-02-11 16:50:00,45.9,44.4,29.74,West,270,1.6,3.1,93,0.00,,,0.33,fowsr,2013-02-11 21:50:00,
2013-02-11 16:55:00,46.0,44.6,29.74,NNW,337,3.1,5.4,93,0.00,,,0.33,fowsr,2013-02-11 21:55:00,
2013-02-11 17:00:00,46.2,44.8,29.73,SW,225,2.2,4.5,93,0.00,,,0.33,fowsr,2013-02-11 22:00:00,
2013-02-11 17:05:00,46.4,45.0,29.74,South,180,2.2,7.6,93,0.00,,,0.33,fowsr,2013-02-11 22:05:00,
2013-02-11 17:10:00,46.6,45.2,29.73,South,180,2.2,6.0,93,0.00,,,0.33,fowsr,2013-02-11 22:10:00,
2013-02-11 17:15:00,46.8,45.3,29.73,SW,225,2.2,3.8,93,0.00,,,0.33,fowsr,2013-02-11 22:15:00,
2013-02-11 17:20:00,46.9,45.7,29.73,West,270,3.1,4.5,94,0.00,,,0.33,fowsr,2013-02-11 22:20:00,
2013-02-11 17:25:00,46.8,45.5,29.72,SW,225,2.2,4.5,94,0.00,,,0.33,fowsr,2013-02-11 22:25:00,
2013-02-11 17:30:00,46.8,45.5,29.72,West,270,4.5,8.3,94,0.00,,,0.33,fowsr,2013-02-11 22:30:00,
2013-02-11 17:35:00,46.8,45.5,29.72,SW,225,2.2,3.8,94,0.00,,,0.33,fowsr,2013-02-11 22:35:00,
2013-02-11 17:40:00,46.8,45.5,29.72,SW,225,3.1,4.5,94,0.00,,,0.33,fowsr,2013-02-11 22:40:00,
2013-02-11 17:45:00,46.9,45.7,29.72,SW,225,1.6,2.2,94,0.00,,,0.33,fowsr,2013-02-11 22:45:00,
2013-02-11 17:50:00,46.9,45.7,29.72,SW,225,1.6,2.2,94,0.00,,,0.33,fowsr,2013-02-11 22:50:00,
2013-02-11 17:55:00,47.1,45.9,29.72,East,90,2.2,5.4,94,0.00,,,0.33,fowsr,2013-02-11 22:55:00,
2013-02-11 18:00:00,47.3,46.1,29.72,WSW,247,2.2,3.8,94,0.00,,,0.33,fowsr,2013-02-11 23:00:00,
2013-02-11 18:05:00,47.3,46.1,29.71,West,270,3.1,3.8,94,0.00,,,0.33,fowsr,2013-02-11 23:05:00,
2013-02-11 18:10:00,47.1,45.9,29.72,SW,225,1.6,3.1,94,0.00,,,0.33,fowsr,2013-02-11 23:10:00,
2013-02-11 18:15:00,47.3,46.1,29.71,West,270,1.6,2.2,94,0.00,,,0.33,fowsr,2013-02-11 23:15:00,
2013-02-11 18:20:00,47.3,46.1,29.71,West,270,1.6,2.2,94,0.00,,,0.33,fowsr,2013-02-11 23:20:00,
2013-02-11 18:25:00,47.3,46.3,29.71,West,270,2.2,4.5,95,0.00,,,0.33,fowsr,2013-02-11 23:25:00,
2013-02-11 18:30:00,47.5,46.5,29.71,SW,225,1.6,4.5,95,0.00,,,0.33,fowsr,2013-02-11 23:30:00,
2013-02-11 18:35:00,47.3,46.1,29.71,SW,225,3.1,4.5,94,0.00,,,0.33,fowsr,2013-02-11 23:35:00,
2013-02-11 18:40:00,47.5,46.5,29.70,SW,225,1.6,2.2,95,0.00,,,0.33,fowsr,2013-02-11 23:40:00,
2013-02-11 18:45:00,47.5,46.5,29.71,SW,225,0.7,1.6,95,0.00,,,0.33,fowsr,2013-02-11 23:45:00,
2013-02-11 18:50:00,47.5,46.5,29.70,SW,225,0.7,2.2,95,0.00,,,0.33,fowsr,2013-02-11 23:50:00,
2013-02-11 18:55:00,47.3,46.3,29.70,SW,225,2.2,3.8,95,0.00,,,0.33,fowsr,2013-02-11 23:55:00,
2013-02-11 19:00:00,47.3,46.3,29.70,SW,225,0.7,2.2,95,0.00,,,0.33,fowsr,2013-02-12 00:00:00,
2013-02-11 19:05:00,47.3,46.3,29.70,SW,225,0.7,2.2,95,0.00,,,0.33,fowsr,2013-02-12 00:05:00,
2013-02-11 19:10:00,47.3,46.3,29.70,SW,225,0.7,1.6,95,0.00,,,0.33,fowsr,2013-02-12 00:10:00,
2013-02-11 19:15:00,47.3,46.3,29.70,SW,225,0.7,1.6,95,0.00,,,0.33,fowsr,2013-02-12 00:15:00,
2013-02-11 19:20:00,47.3,46.3,29.70,SW,225,1.6,3.1,95,0.00,,,0.33,fowsr,2013-02-12 00:20:00,
2013-02-11 19:25:00,47.5,46.5,29.70,SW,225,1.6,2.2,95,0.00,,,0.33,fowsr,2013-02-12 00:25:00,
2013-02-11 19:30:00,47.5,46.5,29.70,SW,225,0.7,2.2,95,0.00,,,0.33,fowsr,2013-02-12 00:30:00,
2013-02-11 19:35:00,47.5,46.5,29.69,WSW,247,0.7,2.2,95,0.00,,,0.33,fowsr,2013-02-12 00:35:00,
2013-02-11 19:40:00,47.3,46.3,29.69,SW,225,0.7,2.2,95,0.00,,,0.33,fowsr,2013-02-12 00:40:00,
2013-02-11 19:45:00,47.5,46.5,29.69,SW,225,0.7,1.6,95,0.00,,,0.33,fowsr,2013-02-12 00:45:00,
2013-02-11 19:50:00,47.5,46.5,29.69,SW,225,0.7,1.6,95,0.00,,,0.33,fowsr,2013-02-12 00:50:00,
2013-02-11 19:55:00,47.5,46.5,29.69,SW,225,0.7,1.6,95,0.00,,,0.33,fowsr,2013-02-12 00:55:00,
2013-02-11 20:00:00,47.3,46.3,29.69,SW,225,1.6,3.8,95,0.00,,,0.33,fowsr,2013-02-12 01:00:00,
2013-02-11 20:05:00,47.3,46.3,29.69,SW,225,0.7,2.2,95,0.00,,,0.33,fowsr,2013-02-12 01:05:00,
2013-02-11 20:10:00,47.3,46.3,29.68,West,270,0.7,2.2,95,0.00,,,0.33,fowsr,2013-02-12 01:10:00,
2013-02-11 20:15:00,47.5,46.5,29.68,West,270,0.7,2.2,95,0.00,,,0.33,fowsr,2013-02-12 01:15:00,
2013-02-11 20:20:00,47.5,46.5,29.68,West,270,0.7,2.2,95,0.00,,,0.33,fowsr,2013-02-12 01:20:00,
2013-02-11 20:25:00,47.5,46.5,29.69,West,270,1.6,2.2,95,0.00,,,0.33,fowsr,2013-02-12 01:25:00,
2013-02-11 20:30:00,47.5,46.5,29.68,West,270,1.6,3.1,95,0.00,,,0.33,fowsr,2013-02-12 01:30:00,
2013-02-11 20:35:00,47.5,46.5,29.69,West,270,1.6,3.1,95,0.00,,,0.33,fowsr,2013-02-12 01:35:00,
2013-02-11 20:40:00,47.5,46.5,29.69,WNW,292,0.7,1.6,95,0.00,,,0.33,fowsr,2013-02-12 01:40:00,
2013-02-11 20:45:00,47.3,46.3,29.69,West,270,0.0,1.6,95,0.00,,,0.33,fowsr,2013-02-12 01:45:00,
2013-02-11 20:55:00,47.1,46.1,29.69,NNW,337,0.7,2.2,95,0.00,,,0.33,fowsr,2013-02-12 01:55:00,
2013-02-11 21:00:00,47.1,46.1,29.69,West,270,0.7,1.6,95,0.00,,,0.33,fowsr,2013-02-12 02:00:00,
2013-02-11 21:05:00,47.1,46.1,29.70,West,270,0.7,1.6,95,0.00,,,0.33,fowsr,2013-02-12 02:05:00,
2013-02-11 21:10:00,47.1,46.1,29.70,West,270,0.0,1.6,95,0.00,,,0.33,fowsr,2013-02-12 02:10:00,
2013-02-11 21:15:00,46.9,45.9,29.70,SW,225,0.7,1.6,95,0.00,,,0.33,fowsr,2013-02-12 02:15:00,
2013-02-11 21:20:00,46.9,45.9,29.70,SW,225,1.6,3.1,95,0.00,,,0.33,fowsr,2013-02-12 02:20:00,
2013-02-11 21:25:00,46.9,45.9,29.69,SW,225,0.7,1.6,95,0.00,,,0.33,fowsr,2013-02-12 02:25:00,
2013-02-11 21:30:00,46.9,45.9,29.69,SW,225,0.7,1.6,95,0.00,,,0.33,fowsr,2013-02-12 02:30:00,
2013-02-11 21:35:00,46.9,45.9,29.71,West,270,1.6,3.1,95,0.00,,,0.33,fowsr,2013-02-12 02:35:00,
2013-02-11 21:40:00,47.1,46.1,29.72,West,270,0.7,2.2,95,0.00,,,0.33,fowsr,2013-02-12 02:40:00,
2013-02-11 21:45:00,47.3,46.3,29.73,WSW,247,0.7,2.2,95,0.00,,,0.33,fowsr,2013-02-12 02:45:00,
2013-02-11 21:50:00,47.1,46.1,29.73,West,270,0.7,2.2,95,0.00,,,0.33,fowsr,2013-02-12 02:50:00,
2013-02-11 21:55:00,47.1,46.1,29.74,NW,315,2.2,4.5,95,0.00,,,0.33,fowsr,2013-02-12 02:55:00,
2013-02-11 22:00:00,47.3,46.3,29.74,West,270,3.8,6.9,95,0.01,,,0.34,fowsr,2013-02-12 03:00:00,
2013-02-11 22:05:00,47.5,46.5,29.74,SW,225,1.6,3.1,95,0.01,,,0.34,fowsr,2013-02-12 03:05:00,
2013-02-11 22:10:00,47.5,46.5,29.74,West,270,3.1,4.5,95,0.01,,,0.34,fowsr,2013-02-12 03:10:00,
2013-02-11 22:15:00,47.1,46.1,29.75,NW,315,3.1,6.0,95,0.01,,,0.34,fowsr,2013-02-12 03:15:00,
2013-02-11 22:20:00,46.8,45.8,29.75,West,270,1.6,3.1,95,0.01,,,0.34,fowsr,2013-02-12 03:20:00,
2013-02-11 22:25:00,46.0,44.8,29.76,WSW,247,1.6,3.1,94,0.01,,,0.34,fowsr,2013-02-12 03:25:00,
2013-02-11 22:30:00,45.7,44.5,29.76,SW,225,1.6,2.2,94,0.01,,,0.34,fowsr,2013-02-12 03:30:00,
2013-02-11 22:35:00,45.1,43.9,29.76,West,270,2.2,3.1,94,0.01,,,0.34,fowsr,2013-02-12 03:35:00,
2013-02-11 22:40:00,44.8,43.6,29.76,SW,225,0.0,0.7,94,0.01,,,0.34,fowsr,2013-02-12 03:40:00,
2013-02-11 22:45:00,44.2,43.3,29.76,West,270,0.7,2.2,95,0.01,,,0.34,fowsr,2013-02-12 03:45:00,
2013-02-11 22:50:00,44.1,43.1,29.76,NE,45,0.0,0.7,95,0.01,,,0.34,fowsr,2013-02-12 03:50:00,
2013-02-11 22:55:00,43.7,42.5,29.76,South,180,0.0,0.0,94,0.01,,,0.34,fowsr,2013-02-12 03:55:00,
2013-02-11 23:00:00,43.3,42.2,29.76,SW,225,0.0,0.0,94,0.01,,,0.34,fowsr,2013-02-12 04:00:00,
2013-02-11 23:05:00,43.3,42.2,29.76,SW,225,0.0,0.0,94,0.00,,,0.34,fowsr,2013-02-12 04:05:00,
2013-02-11 23:10:00,42.6,41.6,29.77,West,270,0.0,0.0,95,0.00,,,0.34,fowsr,2013-02-12 04:10:00,
2013-02-11 23:15:00,42.3,41.3,29.77,West,270,0.0,0.0,95,0.00,,,0.34,fowsr,2013-02-12 04:15:00,
2013-02-11 23:20:00,42.1,41.1,29.77,SW,225,0.0,0.7,95,0.00,,,0.34,fowsr,2013-02-12 04:20:00,
2013-02-11 23:25:00,41.7,40.7,29.78,SW,225,0.0,0.0,95,0.00,,,0.34,fowsr,2013-02-12 04:25:00,
2013-02-11 23:30:00,41.5,40.6,29.77,SW,225,0.0,0.0,95,0.00,,,0.34,fowsr,2013-02-12 04:30:00,
2013-02-11 23:35:00,41.4,40.2,29.78,West,270,0.7,1.6,94,0.00,,,0.34,fowsr,2013-02-12 04:35:00,
2013-02-11 23:40:00,41.2,40.0,29.78,SW,225,0.0,2.2,94,0.00,,,0.34,fowsr,2013-02-12 04:40:00,
2013-02-11 23:45:00,41.2,40.0,29.79,NW,315,0.7,2.2,94,0.00,,,0.34,fowsr,2013-02-12 04:45:00,
2013-02-11 23:50:00,41.0,39.8,29.79,West,270,0.0,0.7,94,0.00,,,0.34,fowsr,2013-02-12 04:50:00,
2013-02-11 23:55:00,41.0,39.8,29.79,NW,315,0.0,1.6,94,0.00,,,0.34,fowsr,2013-02-12 04:55:00,